| time (UTC) | temp C | wind direction | speed KPH | gust KPH | rain 1hr cm | rain 24hr cm | rain mn cm | humidity % | barometer mb |
| 20260506024033 | 19 | 89 | 8.0 | 19.3 | 0.00 | 0.43 | 0.00 | 35 | 1011.4 |
| 20260506023031 | 19 | 293 | 9.7 | 20.9 | 0.00 | 0.43 | 0.00 | 34 | 1011.4 |
| 20260506022033 | 19 | 300 | 4.8 | 16.1 | 0.00 | 0.43 | 0.00 | 33 | 1011.4 |
| 20260506021033 | 20 | 293 | 8.0 | 14.5 | 0.00 | 0.43 | 0.00 | 32 | 1010.9 |
| 20260506020050 | 20 | 305 | 12.9 | 20.9 | 0.00 | 0.43 | 0.00 | 31 | 1010.7 |
| 20260506015033 | 20 | 290 | 11.3 | 20.9 | 0.00 | 0.43 | 0.00 | 30 | 1010.7 |
| 20260506014033 | 20 | 279 | 12.9 | 24.1 | 0.00 | 0.43 | 0.00 | 29 | 1010.7 |
| 20260506013033 | 20 | 289 | 14.5 | 29.0 | 0.00 | 0.43 | 0.00 | 29 | 1010.6 |
| 20260506012031 | 21 | 280 | 11.3 | 20.9 | 0.00 | 0.43 | 0.00 | 29 | 1010.6 |
| 20260506011033 | 21 | 282 | 17.7 | 33.8 | 0.00 | 0.43 | 0.00 | 30 | 1010.5 |
| 20260506010033 | 21 | 296 | 17.7 | 25.7 | 0.00 | 0.43 | 0.00 | 30 | 1010.1 |
| 20260506005033 | 21 | 307 | 14.5 | 30.6 | 0.00 | 0.43 | 0.00 | 29 | 1010.1 |
| 20260506004050 | 22 | 304 | 14.5 | 29.0 | 0.00 | 0.43 | 0.00 | 28 | 1009.9 |
| 20260506003050 | 22 | 296 | 19.3 | 30.6 | 0.00 | 0.43 | 0.00 | 28 | 1009.8 |
| 20260506002033 | 22 | 270 | 20.9 | 30.6 | 0.00 | 0.43 | 0.00 | 27 | 1009.8 |
| 20260506001031 | 22 | 305 | 17.7 | 30.6 | 0.00 | 0.43 | 0.00 | 28 | 1009.7 |
| 20260506000033 | 22 | 283 | 16.1 | 35.4 | 0.00 | 0.43 | 0.00 | 28 | 1009.3 |
| 20260505235050 | 23 | 292 | 16.1 | 43.5 | 0.00 | 0.43 | 0.00 | 27 | 1009.3 |
| 20260505234050 | 22 | 293 | 14.5 | 25.7 | 0.00 | 0.43 | 0.00 | 27 | 1009.3 |
| 20260505233048 | 22 | 292 | 14.5 | 29.0 | 0.00 | 0.43 | 0.00 | 28 | 1009.3 |
| 20260505232033 | 22 | 280 | 14.5 | 35.4 | 0.00 | 0.43 | 0.00 | 29 | 1009.3 |
| 20260505231033 | 22 | 278 | 16.1 | 45.1 | 0.00 | 0.43 | 0.00 | 29 | 1009.6 |
| 20260505230031 | 22 | 303 | 11.3 | 24.1 | 0.00 | 0.43 | 0.00 | 29 | 1009.8 |
| 20260505225033 | 22 | 279 | 12.9 | 29.0 | 0.00 | 0.43 | 0.00 | 30 | 1009.8 |
| 20260505224033 | 22 | 283 | 17.7 | 29.0 | 0.00 | 0.43 | 0.00 | 30 | 1009.8 |
| 20260505223033 | 22 | 280 | 9.7 | 16.1 | 0.00 | 0.43 | 0.00 | 31 | 1009.9 |
| 20260505222033 | 22 | 293 | 11.3 | 24.1 | 0.00 | 0.43 | 0.00 | 31 | 1009.9 |
| 20260505221033 | 22 | 290 | 11.3 | 20.9 | 0.00 | 0.43 | 0.00 | 32 | 1010.0 |
| 20260505220033 | 22 | 300 | 11.3 | 24.1 | 0.00 | 0.43 | 0.00 | 32 | 1010.2 |
| 20260505215031 | 22 | 283 | 8.0 | 16.1 | 0.00 | 0.43 | 0.00 | 33 | 1010.2 |
| 20260505214033 | 22 | 271 | 8.0 | 20.9 | 0.00 | 0.43 | 0.00 | 35 | 1010.3 |
| 20260505213050 | 21 | 279 | 14.5 | 30.6 | 0.00 | 0.43 | 0.00 | 38 | 1010.3 |
| 20260505212033 | 21 | 294 | 17.7 | 35.4 | 0.00 | 0.43 | 0.00 | 41 | 1010.3 |
| 20260505211107 | 21 | 293 | 17.7 | 30.6 | 0.00 | 0.43 | 0.00 | 43 | 1010.6 |
| 20260505210033 | 20 | 285 | 11.3 | 25.7 | 0.00 | 0.43 | 0.00 | 46 | 1011.0 |
| 20260505205031 | 20 | 298 | 11.3 | 25.7 | 0.00 | 0.43 | 0.00 | 46 | 1011.0 |
| 20260505204031 | 21 | 310 | 11.3 | 25.7 | 0.00 | 0.43 | 0.00 | 45 | 1010.8 |
| 20260505203033 | 21 | 305 | 8.0 | 19.3 | 0.00 | 0.43 | 0.00 | 43 | 1010.8 |
| 20260505202108 | 21 | 288 | 16.1 | 24.1 | 0.00 | 0.43 | 0.00 | 44 | 1010.8 |
| 20260505201033 | 21 | 288 | 6.4 | 16.1 | 0.00 | 0.43 | 0.00 | 47 | 1010.9 |
| 20260505200033 | 21 | 290 | 11.3 | 25.7 | 0.00 | 0.43 | 0.00 | 49 | 1011.1 |
| 20260505195033 | 20 | 284 | 12.9 | 24.1 | 0.00 | 0.43 | 0.00 | 52 | 1011.1 |
| 20260505194031 | 20 | 294 | 6.4 | 14.5 | 0.00 | 0.43 | 0.00 | 54 | 1011.4 |
| 20260505193031 | 20 | 297 | 8.0 | 20.9 | 0.00 | 0.43 | 0.00 | 55 | 1011.5 |
| 20260505192033 | 20 | 305 | 3.2 | 11.3 | 0.00 | 0.43 | 0.00 | 55 | 1011.5 |
| 20260505191033 | 20 | 290 | 4.8 | 14.5 | 0.00 | 0.43 | 0.00 | 55 | 1011.6 |
| 20260505190033 | 19 | 47 | 3.2 | 14.5 | 0.00 | 0.43 | 0.00 | 57 | 1012.0 |
| 20260505185107 | 18 | 16 | 0.0 | 4.8 | 0.00 | 0.43 | 0.00 | 59 | 1012.0 |
| 20260505184032 | 18 | 284 | 0.0 | 9.7 | 0.00 | 0.43 | 0.00 | 60 | 1012.5 |
| 20260505183031 | 18 | 52 | 1.6 | 11.3 | 0.00 | 0.43 | 0.00 | 61 | 1012.4 |
| 20260505182033 | 18 | 18 | 1.6 | 6.4 | 0.00 | 0.43 | 0.00 | 62 | 1012.4 |
| 20260505181033 | 17 | 48 | 0.0 | 4.8 | 0.00 | 0.43 | 0.00 | 63 | 1012.9 |
| 20260505180033 | 17 | 324 | 1.6 | 9.7 | 0.00 | 0.43 | 0.00 | 63 | 1013.0 |
| 20260505175050 | 17 | 73 | 0.0 | 9.7 | 0.00 | 0.43 | 0.00 | 64 | 1013.0 |
| 20260505174033 | 17 | 273 | 1.6 | 9.7 | 0.00 | 0.43 | 0.00 | 64 | 1013.0 |
| 20260505173033 | 17 | 277 | 0.0 | 6.4 | 0.00 | 0.43 | 0.00 | 64 | 1013.0 |
| 20260505172031 | 17 | 60 | 0.0 | 9.7 | 0.00 | 0.43 | 0.00 | 65 | 1013.0 |
| 20260505171033 | 17 | 67 | 0.0 | 4.8 | 0.00 | 0.43 | 0.00 | 65 | 1013.1 |
| 20260505170033 | 16 | 0 | 0.0 | 0.0 | 0.00 | 0.43 | 0.00 | 66 | 1013.0 |
| 20260505165033 | 16 | 292 | 3.2 | 11.3 | 0.00 | 0.43 | 0.00 | 67 | 1013.0 |
| 20260505164033 | 16 | 287 | 4.8 | 11.3 | 0.00 | 0.43 | 0.00 | 68 | 1012.8 |
| 20260505163033 | 16 | 299 | 4.8 | 14.5 | 0.00 | 0.43 | 0.00 | 69 | 1013.0 |
| 20260505162050 | 16 | 283 | 8.0 | 16.1 | 0.00 | 0.43 | 0.00 | 72 | 1013.0 |
| 20260505161031 | 16 | 282 | 3.2 | 11.3 | 0.00 | 0.43 | 0.00 | 75 | 1013.0 |
| 20260505153033 | 15 | 271 | 4.8 | 11.3 | 0.00 | 0.43 | 0.00 | 83 | 1012.7 |
| 20260505152033 | 15 | 275 | 1.6 | 4.8 | 0.00 | 0.43 | 0.00 | 85 | 1012.7 |
| 20260505151031 | 15 | 286 | 1.6 | 4.8 | 0.00 | 0.43 | 0.00 | 85 | 1012.6 |
| 20260505125031 | 13 | 0 | 0.0 | 0.0 | 0.00 | 0.43 | 0.00 | 88 | 1011.6 |
| 20260505124032 | 13 | 0 | 0.0 | 0.0 | 0.00 | 0.43 | 0.00 | 89 | 1011.4 |
| 20260505123033 | 13 | 56 | 0.0 | 1.6 | 0.00 | 0.43 | 0.00 | 89 | 1010.9 |
| 20260505122033 | 13 | 54 | 0.0 | 1.6 | 0.00 | 0.43 | 0.00 | 90 | 1010.9 |
| 20260505121033 | 13 | 54 | 0.0 | 4.8 | 0.00 | 0.43 | 0.00 | 90 | 1010.9 |
| 20260505120050 | 13 | 44 | 0.0 | 6.4 | 0.00 | 0.43 | 0.00 | 90 | 1010.3 |
| 20260505115033 | 13 | 353 | 0.0 | 1.6 | 0.00 | 0.43 | 0.00 | 90 | 1010.3 |
| 20260505114033 | 13 | 7 | 0.0 | 9.7 | 0.00 | 0.43 | 0.00 | 89 | 1010.8 |
| 20260505113031 | 13 | 69 | 1.6 | 6.4 | 0.00 | 0.43 | 0.00 | 90 | 1010.6 |
| 20260505112033 | 13 | 23 | 0.0 | 1.6 | 0.00 | 0.43 | 0.00 | 89 | 1010.6 |
| 20260505111033 | 13 | 22 | 0.0 | 1.6 | 0.00 | 0.41 | 0.00 | 89 | 1010.8 |
| 20260505102050 | 13 | 35 | 6.4 | 16.1 | 0.36 | 0.36 | 0.00 | 87 | 1011.1 |
| 20260505101033 | 13 | 34 | 11.3 | 25.7 | 0.00 | 0.28 | 0.00 | 87 | 1010.8 |
| 20260505100107 | 14 | 36 | 11.3 | 20.9 | 0.00 | 0.28 | 0.00 | 86 | 1010.7 |
| 20260505095033 | 14 | 22 | 8.0 | 14.5 | 0.00 | 0.28 | 0.00 | 84 | 1010.7 |
| 20260505094033 | 14 | 354 | 6.4 | 16.1 | 0.00 | 0.28 | 0.00 | 83 | 1011.0 |
| 20260505093033 | 14 | 16 | 4.8 | 11.3 | 0.00 | 0.28 | 0.00 | 82 | 1011.1 |
| 20260505092031 | 14 | 37 | 6.4 | 14.5 | 0.00 | 0.25 | 0.00 | 83 | 1011.1 |
| 20260505091033 | 14 | 42 | 4.8 | 16.1 | 0.00 | 0.25 | 0.00 | 84 | 1011.0 |
| 20260505090033 | 14 | 5 | 1.6 | 11.3 | 0.10 | 0.25 | 0.00 | 85 | 1011.7 |
| 20260505085033 | 13 | 18 | 3.2 | 9.7 | 0.10 | 0.25 | 0.00 | 86 | 1011.7 |
| 20260505084050 | 13 | 3 | 6.4 | 14.5 | 0.13 | 0.23 | 0.00 | 87 | 1012.3 |
| 20260505083033 | 14 | 356 | 3.2 | 9.7 | 0.33 | 0.23 | 0.00 | 87 | 1012.6 |
| 20260505082033 | 14 | 2 | 6.4 | 16.1 | 0.15 | 0.18 | 0.00 | 86 | 1012.6 |
| 20260505081031 | 14 | 13 | 6.4 | 14.5 | 0.10 | 0.15 | 0.00 | 86 | 1013.1 |
| 20260505080050 | 14 | 15 | 4.8 | 11.3 | 0.10 | 0.13 | 0.00 | 86 | 1013.1 |
| 20260505075033 | 14 | 6 | 6.4 | 14.5 | 0.28 | 0.13 | 0.00 | 87 | 1013.1 |
| 20260505074033 | 14 | 14 | 4.8 | 14.5 | 0.23 | 0.08 | 0.00 | 87 | 1013.5 |
| 20260505073033 | 14 | 54 | 0.0 | 1.6 | 0.15 | 0.05 | 0.00 | 88 | 1013.5 |
| 20260505072050 | 14 | 0 | 0.0 | 0.0 | 0.00 | 0.03 | 0.00 | 87 | 1013.5 |
| 20260505071033 | 14 | 0 | 0.0 | 0.0 | 0.15 | 0.51 | 0.00 | 87 | 1013.4 |
| 20260505070031 | 14 | 80 | 0.0 | 1.6 | 0.15 | 0.48 | 0.00 | 87 | 1013.4 |
| 20260505065033 | 14 | 0 | 0.0 | 0.0 | 0.15 | 0.48 | 0.00 | 86 | 1013.4 |
| 20260505064033 | 15 | 0 | 0.0 | 0.0 | 0.15 | 0.43 | 0.00 | 86 | 1013.5 |
| 20260505063033 | 15 | 0 | 0.0 | 0.0 | 0.15 | 0.43 | 0.00 | 85 | 1013.7 |
| 20260505062033 | 15 | 80 | 0.0 | 1.6 | 0.00 | 0.38 | 0.00 | 84 | 1013.7 |
| 20260505061033 | 15 | 80 | 0.0 | 4.8 | 0.10 | 0.38 | 0.00 | 83 | 1013.8 |
| 20260505060048 | 15 | 53 | 1.6 | 4.8 | 0.10 | 0.38 | 0.00 | 83 | 1013.5 |
| 20260505055031 | 15 | 6 | 0.0 | 6.4 | 0.00 | 0.36 | 0.00 | 83 | 1013.5 |
| 20260505054050 | 14 | 33 | 1.6 | 6.4 | 0.00 | 0.36 | 0.00 | 83 | 1013.6 |
| 20260505053033 | 14 | 45 | 3.2 | 11.3 | 0.00 | 0.33 | 0.00 | 83 | 1013.4 |
| 20260505052033 | 14 | 41 | 3.2 | 9.7 | 0.00 | 0.33 | 0.00 | 84 | 1013.4 |
| 20260505051033 | 13 | 35 | 0.0 | 4.8 | 0.00 | 0.33 | 0.00 | 84 | 1013.5 |
| 20260505041033 | 15 | 88 | 3.2 | 14.5 | 0.20 | 0.23 | 0.00 | 71 | 1013.7 |
| 20260505040033 | 16 | 272 | 3.2 | 9.7 | 0.00 | 0.20 | 0.00 | 67 | 1013.4 |
| 20260505035033 | 16 | 284 | 6.4 | 11.3 | 0.00 | 0.18 | 0.00 | 65 | 1013.4 |
| 20260505034050 | 16 | 298 | 4.8 | 11.3 | 0.00 | 0.18 | 0.00 | 64 | 1012.4 |
| 20260505033048 | 16 | 83 | 4.8 | 11.3 | 0.00 | 0.18 | 0.00 | 63 | 1012.2 |
| 20260505032033 | 16 | 356 | 3.2 | 20.9 | 0.00 | 0.18 | 0.00 | 63 | 1012.2 |
| 20260505031033 | 15 | 352 | 4.8 | 11.3 | 0.00 | 0.18 | 0.00 | 62 | 1012.8 |
| 20260505030050 | 15 | 56 | 3.2 | 9.7 | 0.00 | 0.18 | 0.00 | 62 | 1012.8 |
| 20260505025033 | 15 | 1 | 4.8 | 11.3 | 0.00 | 0.15 | 0.00 | 64 | 1012.8 |